Accueil
METAR-TAF:

METAR-TAF

Aéroports :

Orcas Island Airport

Eastsound, Washington, États-Unis

latitude: 48-42-29N, longitude: 122-54-37W, altitude: 9 m

Observation

Le bulletin a été fait il y a 17 minutes, à 19:55 UTC
Vent 4 kt de nord/nord-ouest
Température 14°C
Humidité 82%
Pression 1018 hPa
Visibilité: 16.1 km
Ciel clair

METAR: KORS 191955Z AUTO 34004KT 10SM CLR 14/11 A3006 RMK AO2

Heure: 13:12 (20:12 UTC)


TAF: absent

Observations et prévisions météorologiques de plus de 4000 aéroports (messages METAR et TAF).

Les stations disponibles sont représentées par des disques jaunes et rouges sur la carte.

Passer la souris dessus pour voir le nom de la station.

Cliquer dessus pour voir les observations et prévisions météorologiques.

Pour changer de carte: cliquez sur les boutons verts avec une croix noire pour zoomer, sur le bouton vert avec un tiret pour effectuer un zoom arrière, ou sur les flèches vertes pour les cartes adjacentes.


METAR-TAF: